Location: Great Snoring
(52.8667°N, 0.8833°E)
Time: 14:58:23
(UTC+00:00)

Cosmos 773 Rocket - Pass Details

Date: 19 May 2025
Orbit: 742 x 772 km, 74.1° (Epoch: 17 June)

Event Time Altitude Azimuth Distance (km) Brightness Sun altitude
Exits shadow 21:51:30 10° 191° (S) 2,294 6.0 -12.5°
Reaches altitude 10° 21:51:36 10° 191° (S) 2,261 6.0 -12.5°
Maximum altitude 21:56:39 64° 111° (ESE) 825 4.0 -12.9°
Drops below altitude 10° 22:01:43 10° 30° (NNE) 2,267 6.9 -13.3°
Sets 22:04:06 0° 28° (NNE) 3,194 7.8 -13.4°
